Location: Filler
(36.7551°N, 30.4456°E)
Time: 09:56:26
(UTC+00:00)

Cosmos 1812 - Pass Details

Date: 19 June 2024
Orbit: 463 x 469 km, 82.5° (Epoch: 22 July)

Event Time Altitude Azimuth Distance (km) Brightness Sun altitude
Rises 00:49:26 0° 349° (NNW) 2,522 6.8 -17.7°
Reaches altitude 10° 00:51:33 10° 345° (NNW) 1,638 5.7 -17.5°
Maximum altitude 00:55:05 60° 265° (W) 542 2.5 -17.0°
Enters shadow 00:56:05 40° 206° (SSW) 699 2.8 -16.9°
